Regional Weather Roundup
Issued by NWS

Home | Current Version | Previous Version | Graphics & Text | Print | Product List | Glossary On
Versions: 1 2 3 4 5 6 7 8 9 10 11 12 13 14 15 16 17 18 19 20 21 22 23 24 25 26 27 28 29 30 31 32 33 34 35 36 37 38 39 40 41 42 43 44 45 46 47 48 49 50
701
ASUS43 KIND 220809
RWRIN

WEATHER ROUNDUP FOR INDIANA
NATIONAL WEATHER SERVICE INDIANAPOLIS IN
400 AM EDT FRI SEP 22 2017

NOTE: "FAIR" INDICATES FEW OR NO CLOUDS BELOW 12,000 FEET WITH NO
SIGNIFICANT WEATHER AND/OR OBSTRUCTIONS TO VISIBILITY.

* - STATION DOES NOT REPORT WEATHER SUCH AS PRECIPITATION OR FOG.

+ - STATION NOT QUALITY CONTROLLED BY THE NATIONAL WEATHER SERVICE.
    USE DATA WITH CAUTION...ESPECIALLY DEWPOINT AND RELATIVE
    HUMIDITY OBSERVATIONS.

INZ001>003-010>013-019-020-220900-
NORTHWEST INDIANA

CITY           SKY/WX    TMP DP  RH WIND       PRES   REMARKS
GARY /AIRPORT/ CLEAR     71  68  91 CALM      30.05S
KNOX *+        CLEAR     66  66 100 CALM      30.05F
LA PORTE +     CLEAR     67  66  96 CALM      30.07S
MICHIGAN CITY+ CLEAR     70  70 100 CALM      30.05F
MONTICELLO +   CLEAR     67  65  94 CALM      30.05S FOG
RENSSELAER +   CLEAR     70  63  78 CALM      30.06S
VALPARAISO     CLEAR     69  68  96 CALM      30.06F FOG

$$

LMZ046-743>745-220900-
SOUTHERN LAKE MICHIGAN

STATION/POSITION TIME  TEMP    WIND        PRES    WAVE
                       AIR SEA DIR/SP/G            HT
                 (UTC) (F)     (DEG/KT/KT) (MB)    (FT)
BURNS HARBOR     0740   76     190/  7/  8 1017.9S
MICHIGAN CITY    0740   78     160/  8/ 10   N/A
5NW MICH CITY    0800   73 70  200/  4/  4   N/A     1

$$

INZ004-005-014>016-021>024-220900-
NORTH CENTRAL INDIANA

CITY           SKY/WX    TMP DP  RH WIND       PRES   REMARKS
GOSHEN         CLEAR     69  65  86 S3        30.08S FOG
LOGANSPORT +   CLEAR     66  64  94 CALM      30.08S
PERU/GRISSOM   PTCLDY    71  67  89 SE3       30.07S
ROCHESTER +    CLEAR     72  70  94 CALM      30.08R
SOUTH BEND     CLEAR     71  71 100 CALM      30.07S
WARSAW +       CLEAR     66  66 100 CALM      30.08S FOG

$$

INZ006>009-017-018-025>027-220900-
NORTHEAST INDIANA

CITY           SKY/WX    TMP DP  RH WIND       PRES   REMARKS
AUBURN +       CLEAR     68  64  88 CALM      30.09S FOG
FORT WAYNE     PTCLDY    68  65  90 CALM      30.08F
HUNTINGTON +   CLEAR     67  65  96 CALM      30.08S FOG
KENDALLVILLE + CLEAR     68  68 100 CALM      30.09S FOG

$$

INZ028-029-035-036-043>045-051>053-220900-
WEST CENTRAL INDIANA

CITY           SKY/WX    TMP DP  RH WIND       PRES   REMARKS
GREENCASTLE +  CLEAR     68  66  94 CALM      30.08F
LAFAYETTE      CLEAR     68  68 100 CALM      30.05F
TERRE HAUTE    CLOUDY    71  67  87 CALM      30.06S

$$

INZ030>032-037>040-046>048-054>057-064-065-220900-
CENTRAL INDIANA

CITY           SKY/WX    TMP DP  RH WIND       PRES   REMARKS
CP ATTERBURY + CLEAR     64  63  94 CALM      30.08S FOG
FRANKFORT +    CLOUDY    68  66  94 CALM      30.09S
GREENWOOD *+   CLEAR     73  72  97 CALM      30.08S
INDIANAPOLIS   PTCLDY    74  69  85 CALM      30.07S
-EAGLE CREEK   CLEAR     72  69  90 CALM      30.07S
KOKOMO +       CLEAR     68  67  96 CALM      30.09S
MT COMFORT *+  CLEAR     66  64  94 CALM      30.08F
SHELBYVILLE    CLEAR     68  64  87 SE3       30.07S
ZIONSVILLE +   CLEAR     66  65  99 CALM      30.09S FOG

$$

INZ033-034-041-042-049-050-058-059-220900-
EAST CENTRAL INDIANA

CITY           SKY/WX    TMP DP  RH WIND       PRES   REMARKS
MUNCIE         CLEAR     70  66  87 SE7       30.09S
RICHMOND +     CLEAR     66  66 100 CALM      30.11F FOG

$$

INZ060-061-067>069-081>083-085>088-220900-
SOUTHWEST INDIANA

CITY           SKY/WX    TMP DP  RH WIND       PRES   REMARKS
EVANSVILLE     CLEAR     71  69  93 CALM      30.05F FOG
HUNTINGBURG +  CLEAR     69  69 100 CALM      30.06F FOG
WASHINGTON +   CLEAR     68  66  93 CALM      30.05S

$$

INZ062-063-066-070>080-084-089>092-220900-
SOUTH CENTRAL AND SOUTHEAST INDIANA

CITY           SKY/WX    TMP DP  RH WIND       PRES   REMARKS
BEDFORD +      CLEAR     68  66  94 CALM      30.06F FOG
BLOOMINGTON    CLEAR     67  64  90 CALM      30.07F
MADISON *+     PTCLDY    68  66  94 CALM      30.10S
NORTH VERNON + CLEAR     66  66 100 CALM      30.08F FOG

$$





USA.gov is the U.S. government's official web portal to all federal, state and local government web resources and services.